Regional Weather Roundup
Issued by NWS Bismarck, ND

Home | Current Version | Previous Version | Text Only | Print | Product List | Glossary On
Versions: 1 2 3 4 5 6 7 8 9 10 11 12 13 14 15 16 17 18 19 20 21 22 23 24 25 26 27 28 29 30 31 32 33 34 35 36 37 38 39 40 41 42 43 44 45 46 47 48 49 50
000
ASUS43 KBIS 310610
RWRBIS

NWR BROADCAST TEXT
NATIONAL WEATHER SERVICE BISMARCK ND
100 AM CDT SAT JUL 31 2021

NOTE: "FAIR" INDICATES FEW OR NO CLOUDS BELOW 12,000 FEET WITH NO
SIGNIFICANT WEATHER AND/OR OBSTRUCTIONS TO VISIBILITY.


CITY           SKY/WX    TMP DP  RH WIND       PRES   REMARKS
WILLISTON      CLEAR     68  47  46 W6        30.20S
MINOT          CLEAR     69  52  54 NW12      30.13R
MINOT AFB      CLEAR     68  40  36 N8        30.12R
BISMARCK       CLEAR     72  61  68 W6        30.12R SMOKE
DICKINSON      CLEAR     71  54  54 N9        30.17S
GARRISON         N/A     64  54  69 N8        30.14R
HETTINGER ARPT CLEAR     66  60  81 SW3       30.19S HAZE
JAMESTOWN      PTCLDY    73  60  63 W12       30.05S HAZE
CARRINGTON     FAIR      68  61  77 NW5       30.10R HAZE
HAZEN            N/A     61  57  88 CALM      30.15S
MANDAN         CLEAR     70  61  73 NW9       30.14R HAZE
OAKES          CLOUDY    64  64 100 SW10      30.09S FOG
RUGBY          FAIR      66  54  63 NE8       30.11R
STANLEY        FAIR      68  52  56 N7        30.19R
TIOGA            N/A     63  48  59 CALM      30.21R
WATFORD CITY   FAIR      64  50  59 CALM      30.19S
$$

CITY           SKY/WX    TMP DP  RH WIND       PRES   REMARKS
GRAND FORKS    CLEAR     66  57  72 NW6       30.00R HAZE
GRAND FORKS AF CLEAR     66  63  89 NW7       30.02R SMOKE
DEVILS LAKE    CLEAR     71  58  63 NE8       30.09R
FARGO          PTCLDY    69  61  75 SW12      30.02S HAZE
CANDO            N/A     63  63 100 N6        30.12R FOG
CAVALIER       FAIR      68  57  68 NW7       30.04R
GRAFTON        FAIR      68  57  68 N7          N/A
GWINNER        CLOUDY    66  66 100 SW14      30.07S FOG
LANGDON        FAIR      63  63 100 N6        30.10R
ROLLA          MOCLDY    61  52  72 NW9       30.14R
WALHALLA       FAIR      68  68 100 NW5       30.05R
$$

CITY           SKY/WX    TMP DP  RH WIND       PRES   REMARKS
ABERDEEN       CLEAR     63  60  90 SW6       30.12S FOG
MOBRIDGE       MOCLDY    64  59  83 CALM      30.12S HAZE
BUFFALO          N/A     68  58  70 SW7       30.18S
RAPID CITY     MOCLDY    60  58  92 CALM      30.22S SMOKE
GLASGOW        CLEAR     74  45  35 E10       30.19R
SIDNEY         CLEAR     68  45  43 NW3       30.19R
WOLF POINT     CLEAR     69  44  40 NE6       30.20R
GLENDIVE       CLEAR     73  45  36 NE9       30.21R
MILES CITY     PTCLDY    78  49  35 NE12      30.19R
BAKER          CLEAR     71  49  45 NE6       30.22R
$$

CITY           SKY/WX    TMP DP  RH WIND       PRES   REMARKS
BILLINGS       MOCLDY    79  47  32 NE6       30.22R
GREAT FALLS    CLEAR     77  49  37 E9        30.20R
REGINA         CLEAR     68  46  45 NE8       30.21R
ESTEVAN        CLEAR     59  50  72 N6        30.18R
$$




USA.gov is the U.S. government's official web portal to all federal, state and local government web resources and services.